Showing default

QIANFAN-103, 66045

Orbit data source: Space-Track

QIANFAN-103, 66045 is a Chinese payload satellite in LEO that was launched on Fri, 17 Oct 2025 UTC via a CHANG ZHENG 6A launch vehicle from the Taiyaun Space Center, China (TSC). Payload-class satellites include a variety of spacecraft equipped with specific instruments for various scientific and technological missions. These include communications satellites like Starlink; space stations such as the ISS; scientific satellites like the Hubble; Earth observation satellites from companies like Planet Labs, Umbra, and HawkEye 360; GPS; miniature CubeSats for education and research; and military/defense satellites.

Loading next visibility...
Identifier
66045, 2025-233N
Orbit
LEO
Country
Flag of CNCN / PRC
Related business
Manufacturer
SECM
Mission
Operational Commercial Communications
Bus & Motor
QIANFAN, Unknown motor
Mass
267 kg wet, ~267 kg dry
Launch date (UTC)
2025-10-17 (7 months ago)
Launch vehicle
CHANG ZHENG 6A
Launch site
Taiyaun Space Center, China (TSC)
Object type
Payload
Rocket body
Debris
Shape & HBR
Box + 1 Pan, 14.5 m
Radar Cross Section
13.200 m²

Expand to show TLE details & history
Last TLE update: 14 hours ago

TLE from 14 hours ago
0 QIANFAN-103
1 66045U 25233N   26129.89029000 -.01763894  00000-0 -31036+1 0  9997
2 66045  89.0024  47.0600 0004274 305.5297  54.5453 13.47059602 28015
Epoch: 2026-05-09T21:22Z
TLE epoch observation values (Epoch: 2026-05-09T21:22:01.056Z)
Latitude
0.00001°
Longitude
-141.14563°
Altitude
1,084.195 km
Speed
7.311 km/s
True Right ascension
03h 08m 14s
True Declination
0° 00' 00"
Sunlit
Object was in daylight at epoch
Visualization orbit readout
Latitude
Unknown
Longitude
Unknown
Altitude
Unknown
Speed
Unknown
Apparent Right ascension
Unknown
Apparent Declination
Unknown
Sunlit
N/A
Visualization observer readout
Local Sidereal Time
19:43:41
Azimuth
Unknown
Elevation
Unknown
Doppler factor
Unknown
Orbital elements
Apogee altitude
1,083.341 km
Perigee altitude
1,076.966 km
Semi-major axis
7,458.29 km
Eccentricity
0.00043
Inclination
89.0024°
RAAN
47.06°
Arg. of periapsis
305.5297°
True anomaly
54.58521°
Mean anomaly
54.5453°
Eccentric anomaly
54.56525°
Mean motion
3.36965 °/min
Orbital period
106.84 mins
BSTAR
-3.1036
Loading maneuver chart data...
Computing Atmospheric mass density...
Loading historical data...
Loading historical data...
Loading historical data...
Loading historical data...
Loading historical data...
Loading historical data...
Loading historical data...

Documentation

Showing up to 5 results
|